[[{"header":{"parameterUnit":"m.s-1","parameterCategory":1,"la1":30.2992,"la2":30.254,"lo1":-89.0895,"lo2":-89.0443,"dy":0.0025,"dx":0.0025,"nx":19,"ny":19,"refTime":"2026-04-26T09:00:00:Z","depth":0,"parameterNumber":2,"parameterNumberName":"U-component_of_WINDS"},"data":[0,0,0,-3.9788,-3.979,-3.983,-3.983,-3.9908,-3.9909,0,0,0,0,0,0,0,0,0,0,0,-3.9793,-3.9794,-3.9788,-3.979,-3.983,-3.983,-3.9908,-3.9909,0,0,0,0,0,0,0,0,0,0,0,-3.9792,-3.9794,-3.9795,-3.979,-3.983,-3.983,-3.9908,-3.9868,0,0,0,0,0,0,0,0,0,0,-3.9824,-3.9844,-3.9793,-3.9795,-3.979,-3.983,-3.983,-3.9866,-3.987,-3.9902,0,-3.9934,0,-3.9923,-3.9916,-3.9917,0,0,0,-3.9777,-3.984,-3.9837,-3.9795,-3.9791,-3.983,-3.9808,-3.9868,-3.9874,-3.9908,-3.9935,-3.9937,-3.9925,-3.9917,-3.9918,-4.0141,-4.0142,0,0,-3.9775,-3.9809,-3.9833,-3.9841,-3.9837,-3.9807,-3.981,-3.9871,-3.9902,-3.9935,-3.9938,-3.9926,-3.9918,-3.9918,-4.0139,-4.0141,0,0,0,-3.9777,-3.9808,-3.9802,-3.9839,-3.9844,-3.9809,-3.9812,-3.9899,-3.9894,-3.9939,-3.9927,-3.9918,-3.992,-4.0137,-4.014,-4.0253,0,0,0,-3.9775,-3.9809,-3.9801,-3.9823,-3.9843,-3.9872,-3.9839,-3.989,-3.9896,-3.9926,-3.9918,-3.9921,-4.0135,-4.0139,-4.0246,-4.03,0,0,0,-3.9785,-3.981,-3.9821,-3.9824,-3.9843,-3.987,-3.9869,-3.9891,-3.9889,-3.9917,-3.9921,-4.0134,-4.0138,-4.024,-4.029,-4.0369,0,0,0,-3.9804,-3.9921,-3.9824,-3.9949,-3.9843,-3.9941,-3.9868,-3.9939,-3.9976,-3.9919,-4.0136,-4.014,-4.0238,-4.0283,-4.0362,-4.044,-4.0477,0,0,-3.997,-3.9942,-4.0013,-3.9928,-4.0051,-3.9932,-4.0072,-4.0073,-4.0045,-4.011,-4.0115,-4.0248,-4.0289,-4.0367,-4.0669,-4.0698,0,0,0,-4.0077,-4.0129,-4.0154,-4.0192,-4.0197,-4.0205,-4.0182,-4.0183,-4.0237,-4.0086,-4.0297,-4.0321,-4.0365,-4.0401,-4.0426,-4.0461,-4.0158,-4.0157,-4.0157,-4.0359,-4.0318,-4.0433,-4.0397,-4.0434,-4.041,-4.0436,-4.0433,-4.0379,-4.0431,-4.0449,-4.0637,-4.068,-4.0698,-4.0736,-4.0488,-4.0488,-4.0489,-4.0489,-4.0598,-4.0664,-4.0592,-4.0677,-4.0633,-4.0704,-4.0686,-4.0646,-4.0706,-4.0619,-4.0656,-4.0565,-4.0731,-4.0762,-4.0497,-4.0496,-4.0495,-4.0494,-4.0493,-4.0777,-4.0802,-4.0802,-4.0852,-4.0896,-4.0855,-4.0917,-4.0874,-4.0834,-4.087,-4.0885,-4.0883,-4.0875,-4.0881,-4.0882,-4.0882,-4.0883,-4.0883,-4.0884,-4.0963,-4.0959,-4.1016,-4.1033,-4.1051,-4.1071,-4.1049,-4.1067,-4.1075,-4.1038,-4.1038,-4.098,-4.0756,-4.07,-4.0894,-4.0892,-4.0891,-4.089,-4.0889,-4.1218,-4.1154,-4.1242,-4.1261,-4.1277,-4.1324,-4.1269,-4.1308,-4.1317,-4.1348,-4.1282,-4.1125,-4.1092,-4.1072,-4.1026,-4.1291,-4.1291,-4.1291,-4.1291,-4.1368,-4.1348,-4.1429,-4.1463,-4.1491,-4.1451,-4.1552,-4.1537,-4.1511,-4.1514,-4.1469,-4.1404,-4.1386,-4.1364,-4.1338,-4.1294,-4.1622,-4.1622,-4.1623,-4.1522,-4.1504,-4.1597,-4.1572,-4.1582,-4.1592,-4.1685,-4.1727,-4.1684,-4.1635,-4.1514,-4.1501,-4.1395,-4.1363,-4.131,-4.127,-4.1188,0,0]},{"header":{"parameterUnit":"m.s-1","parameterCategory":1,"la1":30.2992,"la2":30.254,"lo1":-89.0895,"lo2":-89.0443,"dy":0.0025,"dx":0.0025,"nx":19,"ny":19,"refTime":"2026-04-26T09:00:00:Z","depth":0,"parameterNumber":3,"parameterNumberName":"V-component_of_WINDS"},"data":[0,0,0,1.6865,1.6864,1.6819,1.6819,1.6779,1.6778,0,0,0,0,0,0,0,0,0,0,0,1.689,1.689,1.6865,1.6864,1.6819,1.6819,1.6779,1.6778,0,0,0,0,0,0,0,0,0,0,0,1.689,1.689,1.689,1.6864,1.6819,1.6819,1.6779,1.6806,0,0,0,0,0,0,0,0,0,0,1.6847,1.6881,1.689,1.689,1.6864,1.6819,1.6819,1.6807,1.6805,1.6807,0,1.6813,0,1.6795,1.6777,1.6777,0,0,0,1.6855,1.6883,1.6861,1.689,1.6864,1.682,1.6837,1.6806,1.6803,1.6803,1.6812,1.681,1.6795,1.6777,1.6777,1.6823,1.6824,0,0,1.6858,1.6887,1.6864,1.686,1.6869,1.6839,1.6836,1.6803,1.6814,1.6812,1.6809,1.6794,1.6777,1.6777,1.6822,1.6823,0,0,0,1.6871,1.6889,1.6868,1.6862,1.6853,1.6838,1.6834,1.6816,1.6806,1.6808,1.6793,1.6777,1.6776,1.6822,1.6823,1.6884,0,0,0,1.6872,1.6897,1.6869,1.6887,1.6854,1.6834,1.6848,1.6808,1.6804,1.6794,1.6777,1.6776,1.6821,1.6822,1.6881,1.6908,0,0,0,1.6889,1.6899,1.6896,1.6888,1.687,1.6834,1.6822,1.6807,1.6795,1.6777,1.6776,1.682,1.6822,1.6878,1.6903,1.693,0,0,0,1.6914,1.6949,1.6898,1.6931,1.6871,1.6872,1.6822,1.6821,1.6812,1.6776,1.6821,1.6823,1.6877,1.69,1.6928,1.6959,1.6975,0,0,1.6975,1.6958,1.6975,1.6928,1.6946,1.6877,1.6904,1.6867,1.6837,1.6829,1.683,1.6882,1.6903,1.693,1.7052,1.7065,0,0,0,1.7004,1.7017,1.7016,1.701,1.6985,1.6965,1.6921,1.6908,1.6901,1.6839,1.6898,1.6909,1.6924,1.6938,1.6949,1.696,1.683,1.683,1.683,1.7131,1.7094,1.7121,1.7079,1.7074,1.703,1.7023,1.6997,1.6958,1.6973,1.6971,1.705,1.7067,1.7075,1.7087,1.6983,1.6984,1.6984,1.6984,1.7217,1.7231,1.7182,1.719,1.7151,1.7157,1.7117,1.709,1.709,1.7048,1.7058,1.7017,1.709,1.7099,1.6988,1.6988,1.6987,1.6987,1.6986,1.7297,1.7297,1.7282,1.7272,1.7268,1.7223,1.7227,1.719,1.7154,1.7165,1.716,1.7159,1.7154,1.7165,1.7166,1.7166,1.7166,1.7166,1.7166,1.7387,1.7367,1.7376,1.7354,1.7347,1.7332,1.729,1.7282,1.7263,1.7235,1.7235,1.7197,1.7104,1.7083,1.717,1.717,1.7169,1.7169,1.7169,1.7489,1.7461,1.7474,1.7467,1.7439,1.744,1.7392,1.7379,1.7366,1.737,1.7329,1.7267,1.7246,1.7237,1.7219,1.7336,1.7336,1.7336,1.7336,1.7558,1.7544,1.7551,1.7543,1.753,1.749,1.7507,1.7475,1.7438,1.7428,1.7405,1.7378,1.737,1.7354,1.7342,1.7325,1.7467,1.7467,1.7467,1.762,1.7604,1.7626,1.759,1.7566,1.7547,1.7562,1.7554,1.7505,1.7472,1.742,1.7414,1.7369,1.7357,1.7322,1.7305,1.7272,0,0]}]]